Regional Weather Roundup
Issued by NWS

Home | Current Version | Previous Version | Graphics & Text | Print | Product List | Glossary Off
Versions: 1 2 3 4 5 6 7 8 9 10 11 12 13 14 15 16 17 18 19 20 21 22 23 24 25 26 27 28 29 30 31 32 33 34 35 36 37 38 39 40 41 42 43 44 45 46 47 48 49 50

000
ASUS43 KDTX 221901
RWRMI
MICHIGAN HOURLY REGIONAL WEATHER ROUNDUP
NATIONAL WEATHER SERVICE DETROIT/PONTIAC MI
300 PM EDT SAT APR 22 2017

NOTE: "FAIR" INDICATES FEW OR NO CLOUDS BELOW 12,000 FEET WITH NO
SIGNIFICANT WEATHER AND/OR OBSTRUCTION TO VISIBILITY.

MIZ047>049-052>055-059>063-066>070-074>076-081>083-222000-
SOUTHEAST LOWER MICHIGAN

CITY           SKY/WX    TMP DP  RH WIND       PRES   REMARKS
ADRIAN         MOSUNNY   57  36  45 NE13G21   30.14F
ALMA           SUNNY     58  29  33 CALM      30.16F
ANN ARBOR      CLOUDY    59  32  36 N12       30.14S
BAD AXE        SUNNY     52  27  37 N8        30.17F
CARO           SUNNY     55  31  40 N13       30.16F
DETROIT CITY   PTSUNNY   57  36  45 E12       30.14
DETROIT        PTSUNNY   59  33  37 NE13      30.15S
FLINT          SUNNY     59  34  39 N10       30.15F
GROSSE ILE     CLOUDY    55  36  48 E7        30.14S
HILLSDALE      CLOUDY    55  32  41 NE9       30.13F
HOWELL         CLOUDY    56  30  36 NE8       30.15S

CITY           SKY/WX    TMP DP  RH WIND       PRES   REMARKS
JACKSON        CLOUDY    57  30  35 NE9G22    30.15S
LAMBERTVILLE   CLOUDY    55  32  41 E7        30.14S
LANSING        SUNNY     59  29  31 MISG      30.16F
LAPEER         FAIR      57  32  38 N10       30.15F
MASON          SUNNY     57  36  45 NE10G17   30.16S
MONROE         MOSUNNY   57  32  39 E7        30.13F
MT. CLEMENS    PTSUNNY   56  34  42 NE12      30.14R
PONTIAC        PTSUNNY   56  30  37 N12       30.14R
PORT HOPE        N/A     45  34  65 N5        30.18F
PORT HURON     CLOUDY    50  30  46 NE14      30.16S
TRI CITIES     SUNNY     57  32  38 NE10      30.17F
MIDLAND        FAIR      58  32  36 E7        30.15F
TROY           CLOUDY    58  29  32 N13G20    30.16R
SAGINAW HB     SUNNY     55  28  35 N9        30.17F
$$
MIZ043>046-050>051-056>058-064>065-071>073-077>080-222000-
SOUTHWEST LOWER MICHIGAN

CITY           SKY/WX    TMP DP  RH WIND       PRES   REMARKS
BATTLE CREEK   SUNNY     60  29  30 N16       30.15F
BENTON HARBOR  MOSUNNY   52  34  50 N8        30.17F
BIG RAPIDS     SUNNY     60  23  24 N8        30.15F
COLDWATER      SUNNY     58  30  34 NE6G20    30.14F
FREMONT        FAIR      62  24  24 N3        30.15F
HOLLAND        SUNNY     58  36  43 W12       30.17F
GRAND RAPIDS   MOSUNNY   62  30  29 NE12G17   30.15F
IONIA          FAIR      59  30  33 E8        30.15F
KALAMAZOO      SUNNY     61  27  27 NE10G17   30.16F
LUDINGTON      SUNNY     55  29  37 N9G16     30.18F
MARSHALL       SUNNY     59  30  33 NE7       30.14F
MOUNT PLEASANT SUNNY     60  27  28 N9        30.15F
MUSKEGON       MOSUNNY   59  32  36 W13       30.16F
SOUTH HAVEN    SUNNY     51  35  52 NW12      30.17S
$$
MIZ016>042-222000-
NORTHERN LOWER MICHIGAN

CITY           SKY/WX    TMP DP  RH WIND       PRES   REMARKS
ALPENA         SUNNY     59  24  26 N6G16     30.16F
BEAVER ISLAND  SUNNY     54  27  35 SW9       30.17F
BELLAIRE       SUNNY     59  21  23 NW10      30.17S
CADILLAC       SUNNY     60  22  23 NW7       30.14F
CHARLEVOIX     SUNNY     54  30  40 W8        30.20F
FRANKFORT      SUNNY     55  25  32 W9        30.18F
GAYLORD        SUNNY     60  23  24 MISG      30.14F
GRAYLING       SUNNY     60  24  24 N3        30.14F
HARBOR SPRINGS SUNNY     47  31  52 SW13      30.17F
HOUGHTON LAKE  SUNNY     61  23  23 VRB3      30.15F
MANISTEE       SUNNY     54  27  35 W10       30.18F
OSCODA         SUNNY     51  29  42 E6        30.17R
PELLSTON       SUNNY     60  20  21 N9        30.15F
ROGERS CITY    SUNNY     53  22  29 N7        30.16F
TRAVERSE CITY  SUNNY     58  25  28 NE8       30.16F
$$
MIZ007>008-015-222000-
EASTERN UPPER MICHIGAN

CITY           SKY/WX    TMP DP  RH WIND       PRES   REMARKS
KINROSS        SUNNY     59  24  26 N10       30.12F
MACKINAC ISLAN SUNNY     48  32  53 SW9       30.15F
NEWBERRY       SUNNY     61  23  23 SW5       30.11F
S. S. MARIE    SUNNY     60  23  24 NW9       30.12F
MUNISING         N/A     53  29  39 NW3       30.09F
$$
MIZ004>006-011>014-085-222000-
CENTRAL UPPER MICHIGAN

CITY           SKY/WX    TMP DP  RH WIND       PRES   REMARKS
MANISTIQUE     SUNNY     50  29  44 S12G18    30.14F
ESCANABA       SUNNY     54  24  31 S16       30.15F
MENOMINEE      SUNNY     62  29  28 SW8       30.16F
SAWYER-GWINN   MOSUNNY   63  28  27 SW9G20    30.10F
$$
MIZ001>003-009>011-084-222000-
WESTERN UPPER MICHIGAN

CITY           SKY/WX    TMP DP  RH WIND       PRES   REMARKS
IRON MOUNTAIN  SUNNY     66  25  21 VRB6      30.11F
HOUGHTON       SUNNY     63  29  27 W18G29    30.07F
COPPER HARBOR    N/A     49  34  56 N13       30.06F
IRONWOOD       SUNNY     64  28  25 W18G26    30.11F
$$

ABBREVIATIONS USED IN REMARKS
   TC - TEMPERATURE IN CELSIUS
  WCI - WIND CHILL INDEX
   HX - HEAT INDEX
  VSB - VISIBILITY





USA.gov is the U.S. government's official web portal to all federal, state and local government web resources and services.